This demonstration page uses our WeatherBlox Daily Observations layout. Learn more.

Left ArrowRight Arrow

Hourly Observations for March 31, 2022

Temp ( °F °C ) Dew Point ( °F °C ) Humidity (%) Winds ( mph kmh ) Pressure ( in mb ) Visibility ( mi km ) Precip ( " mm )
12:21 am 00:21 Windy with Snow Likely 32 0 27 -2.8 82 82 NNW 21 33 29.75 1007 5 8 0.00 0.00
12:42 am 00:42 Cloudy with Light Snow 32 0 27 -2.8 82 82 NNW 13 20 29.75 1007 7 11 0.00 0.00
12:54 am 00:54 Cloudy 32 0 27 -2.8 82 82 NNW 16 26 29.71 1006 10 16 0.00 0.00
1:51 am 01:51 Cloudy with Light Snow 30 -1 27 -3 86 86 NNW 15 24 29.75 1008 5 8 0.00 0.00
1:54 am 01:54 Cloudy with Light Snow 31 -0.6 26 -3.3 82 82 NNW 16 26 29.71 1006 5 8 0.00 0.00
2:51 am 02:51 Cloudy with Light Snow 30 -1 27 -3 86 86 NNW 14 22 29.75 1008 3 5 0.00 0.00
2:54 am 02:54 Cloudy with Light Snow 30 -1.1 26 -3.3 85 85 NNW 12 19 29.72 1006 3 4 0.00 0.00
2:59 am 02:59 Cloudy with Light Snow 30 -1.1 26 -3.3 85 85 NNW 9 15 29.75 1008 3 4 0.00 0.00
3:02 am 03:02 Cloudy with Light Snow 30 -1.1 26 -3.3 85 85 NNW 10 17 29.75 1008 3 5 0.00 0.00
3:09 am 03:09 Cloudy with Light Snow 30 -1.1 26 -3.3 85 85 NNW 16 26 29.75 1008 3 4 0.00 0.00
3:17 am 03:17 Cloudy with Light Snow 30 -1.1 25 -3.9 82 82 NNW 16 26 29.75 1008 4 6 0.00 0.00
3:26 am 03:26 Cloudy with Light Snow 31 -0.6 25 -3.9 79 79 NNW 14 22 29.75 1008 7 11 0.00 0.00
3:54 am 03:54 Cloudy 31 -0.6 24 -4.4 76 76 NNW 18 30 29.72 1006 10 16 0.00 0.00
4:26 am 04:26 Cloudy 31 -0.6 24 -4.4 76 76 NNW 18 30 29.76 1008 10 16 0.00 0.00
4:54 am 04:54 Cloudy 31 -0.6 24 -4.4 76 76 NNW 18 30 29.73 1007 10 16 0.00 0.00
5:19 am 05:19 Cloudy 31 -0.6 23 -5 72 72 NNW 16 26 29.77 1008 10 16 0.00 0.00
5:40 am 05:40 Cloudy 31 -0.6 23 -5 72 72 NNW 20 31 29.77 1008 10 16 0.00 0.00
5:54 am 05:54 Cloudy 31 -0.6 23 -5 72 72 NNW 17 28 29.75 1007 10 16 0.00 0.00
6:32 am 06:32 Cloudy 31 -0.6 23 -5 72 72 NNW 16 26 29.79 1009 10 16 0.00 0.00
6:54 am 06:54 Cloudy 30 -1.1 22 -5.6 72 72 NNW 15 24 29.76 1008 10 16 0.00 0.00
7:54 am 07:54 Cloudy 30 -1.1 22 -5.6 72 72 N 16 26 29.80 1009 10 16 0.00 0.00
8:54 am 08:54 Cloudy 30 -1.1 22 -5.6 72 72 N 15 24 29.82 1010 10 16 0.00 0.00
9:54 am 09:54 Cloudy 31 -0.6 22 -5.6 69 69 N 15 24 29.83 1010 10 16 0.00 0.00
10:54 am 10:54 Cloudy 32 0 23 -5 69 69 N 14 22 29.85 1011 10 16 0.00 0.00
11:54 am 11:54 Cloudy 34 1.1 23 -5 64 64 N 13 20 29.87 1012 10 16 0.00 0.00
12:54 pm 12:54 Mostly Cloudy 39 3.9 24 -4.4 55 55 N 12 19 29.86 1011 10 16 0.00 0.00
1:14 pm 13:14 Mostly Cloudy 38 3.3 24 -4.4 57 57 N 14 22 29.87 1012 10 16 0.00 0.00
1:54 pm 13:54 Partly Cloudy 41 5 24 -4.4 51 51 N 13 20 29.85 1011 10 16 0.00 0.00
2:54 pm 14:54 Sunny 46 7.8 25 -3.9 44 44 NNW 13 20 29.84 1011 10 16 0.00 0.00
3:54 pm 15:54 Sunny 47 8.3 23 -5 39 39 NNW 12 19 29.83 1010 10 16 0.00 0.00
4:54 pm 16:54 Sunny 48 8.9 21 -6.1 34 34 WNW 9 15 29.83 1010 10 16 0.00 0.00
5:54 pm 17:54 Sunny 49 9.4 19 -7.2 31 31 NNW 16 26 29.83 1010 10 16 0.00 0.00
6:54 pm 18:54 Sunny 48 8.9 17 -8.3 29 29 NNW 12 19 29.85 1011 10 16 0.00 0.00
7:54 pm 19:54 Clear 39 3.9 16 -8.9 39 39 N 6 9 29.87 1012 10 16 0.00 0.00
8:54 pm 20:54 Clear 39 3.9 16 -8.9 39 39 N 3 6 29.89 1012 10 16 0.00 0.00
9:54 pm 21:54 Clear 30 -1.1 16 -8.9 56 56 Calm 29.92 1013 10 16 0.00 0.00
10:54 pm 22:54 Clear 29 -1.7 17 -8.3 61 61 VRB 3 6 29.93 1014 10 16 0.00 0.00
11:54 pm 23:54 Clear 26 -3.3 17 -8.3 69 69 Calm 29.95 1014 10 16 0.00 0.00

Powered by AerisWeather